,,,PA_Meas_PMT16A,,PR_Meas_QMR101_102,,RH_Meas_QMH101,,SR_Meas_QMS101,,TA_Meas_QMH101,,GenWind,,GenWind,
date,time,status,PA,status,PR,status,RH,status,SR,status,TA,status,DirAvg,status,SpdAvg,
2014-07-17, 00:00:04,VALID,1009.48,VALID,0,VALID,104,VALID,0,VALID,23.5753,VALID,158,VALID,0,
2014-07-17, 00:01:04,VALID,1009.44,VALID,0,VALID,104,VALID,0,VALID,23.5966,VALID,158,VALID,0,
2014-07-17, 00:02:04,VALID,1009.47,VALID,0,VALID,104,VALID,0,VALID,23.5771,VALID,158,VALID,0,
2014-07-17, 00:03:04,VALID,1009.43,VALID,0,VALID,104,VALID,0,VALID,23.5576,VALID,158,VALID,0,
2014-07-17, 00:04:04,VALID,1009.44,VALID,0,VALID,104,VALID,0,VALID,23.5381,VALID,158,VALID,0,
2014-07-17, 00:05:04,VALID,1009.45,VALID,0,VALID,104,VALID,0,VALID,23.5381,VALID,158,VALID,0,
2014-07-17, 00:06:04,VALID,1009.48,VALID,0,VALID,104,VALID,0,VALID,23.5186,VALID,158,VALID,0,
2014-07-17, 00:07:04,VALID,1009.49,VALID,0,VALID,104,VALID,0,VALID,23.5186,VALID,158,VALID,0,
2014-07-17, 00:08:04,VALID,1009.5,VALID,0,VALID,104,VALID,0,VALID,23.5381,VALID,158,VALID,0,
2014-07-17, 00:09:04,VALID,1009.53,VALID,0,VALID,104,VALID,0,VALID,23.5771,VALID,158,VALID,0,
2014-07-17, 00:10:04,VALID,1009.51,VALID,0,VALID,104,VALID,0,VALID,23.5771,VALID,158,VALID,0,
2014-07-17, 00:11:04,VALID,1009.52,VALID,0,VALID,104,VALID,0,VALID,23.5771,VALID,158,VALID,0,
2014-07-17, 00:12:04,VALID,1009.51,VALID,0,VALID,104,VALID,0,VALID,23.5576,VALID,158,VALID,0,
2014-07-17, 00:13:04,VALID,1009.45,VALID,0,VALID,104,VALID,0,VALID,23.5594,VALID,158,VALID,0,
2014-07-17, 00:14:04,VALID,1009.4,VALID,0,VALID,104,VALID,0,VALID,23.5381,VALID,158,VALID,0,
2014-07-17, 00:15:04,VALID,1009.38,VALID,0,VALID,104,VALID,0,VALID,23.4992,VALID,158,VALID,0,
2014-07-17, 00:16:04,VALID,1009.35,VALID,0,VALID,104,VALID,0,VALID,23.4797,VALID,158,VALID,0,
2014-07-17, 00:17:04,VALID,1009.33,VALID,0,VALID,104,VALID,0,VALID,23.4797,VALID,158,VALID,0,
2014-07-17, 00:18:04,VALID,1009.32,VALID,0,VALID,104,VALID,0,VALID,23.4797,VALID,158,VALID,0,
2014-07-17, 00:19:04,VALID,1009.31,VALID,0,VALID,104,VALID,0,VALID,23.4407,VALID,158,VALID,0,
2014-07-17, 00:20:04,VALID,1009.31,VALID,0,VALID,104,VALID,0,VALID,23.4425,VALID,158,VALID,0,
2014-07-17, 00:21:04,VALID,1009.3,VALID,0,VALID,104,VALID,0,VALID,23.4407,VALID,158,VALID,0,
2014-07-17, 00:22:04,VALID,1009.28,VALID,0,VALID,104,VALID,0,VALID,23.4407,VALID,158,VALID,0,
2014-07-17, 00:23:04,VALID,1009.28,VALID,0,VALID,104,VALID,0,VALID,23.4602,VALID,158,VALID,0,
2014-07-17, 00:24:04,VALID,1009.27,VALID,0,VALID,104,VALID,0,VALID,23.4407,VALID,158,VALID,0,
2014-07-17, 00:25:04,VALID,1009.29,VALID,0,VALID,104,VALID,0,VALID,23.4407,VALID,158,VALID,0,
2014-07-17, 00:26:04,VALID,1009.29,VALID,0,VALID,104,VALID,0,VALID,23.4,VALID,158,VALID,0,
2014-07-17, 00:27:04,VALID,1009.34,VALID,0,VALID,104,VALID,0,VALID,23.4212,VALID,158,VALID,0,
2014-07-17, 00:28:04,VALID,1009.34,VALID,0,VALID,104,VALID,0,VALID,23.4212,VALID,158,VALID,0,
2014-07-17, 00:29:04,VALID,1009.34,VALID,0,VALID,104,VALID,0,VALID,23.4017,VALID,158,VALID,0,
2014-07-17, 00:30:04,VALID,1009.34,VALID,0,VALID,104,VALID,0,VALID,23.361,VALID,158,VALID,0,
2014-07-17, 00:31:04,VALID,1009.31,VALID,0,VALID,104,VALID,0,VALID,23.3628,VALID,158,VALID,0,
2014-07-17, 00:32:04,VALID,1009.32,VALID,0,VALID,104,VALID,0,VALID,23.3238,VALID,158,VALID,0,
2014-07-17, 00:33:04,VALID,1009.3,VALID,0,VALID,104,VALID,0,VALID,23.3451,VALID,158,VALID,0,
2014-07-17, 00:34:04,VALID,1009.26,VALID,0,VALID,104,VALID,0,VALID,23.3433,VALID,158,VALID,0,
2014-07-17, 00:35:04,VALID,1009.23,VALID,0,VALID,104,VALID,0,VALID,23.3433,VALID,158,VALID,0,
2014-07-17, 00:36:04,VALID,1009.21,VALID,0,VALID,104,VALID,0,VALID,23.3433,VALID,158,VALID,0,
2014-07-17, 00:37:04,VALID,1009.16,VALID,0,VALID,104,VALID,0,VALID,23.3433,VALID,158,VALID,0.151562,
2014-07-17, 00:38:04,VALID,1009.15,VALID,0,VALID,104,VALID,0,VALID,23.3433,VALID,158,VALID,0,
2014-07-17, 00:39:04,VALID,1009.1,VALID,0,VALID,104,VALID,0,VALID,23.3451,VALID,158,VALID,0.0222656,
2014-07-17, 00:40:04,VALID,1009.07,VALID,0,VALID,104,VALID,0,VALID,23.3238,VALID,158,VALID,0,
2014-07-17, 00:41:04,VALID,1009.06,VALID,0,VALID,104,VALID,0,VALID,23.3043,VALID,158,VALID,0.0386719,
2014-07-17, 00:42:04,VALID,1009.03,VALID,0,VALID,104,VALID,0,VALID,23.2848,VALID,158,VALID,0,
2014-07-17, 00:43:04,VALID,1009.03,VALID,0,VALID,104,VALID,0,VALID,23.2848,VALID,158,VALID,0,
2014-07-17, 00:44:04,VALID,1009.02,VALID,0,VALID,104,VALID,0,VALID,23.2848,VALID,158,VALID,0,
2014-07-17, 00:45:04,VALID,1008.99,VALID,0,VALID,104,VALID,0,VALID,23.2654,VALID,158,VALID,0,
2014-07-17, 00:46:04,VALID,1009.01,VALID,0,INVALID,109.056,VALID,0,VALID,23.2848,VALID,158,VALID,0,
2014-07-17, 00:47:04,VALID,1009.01,VALID,0,INVALID,109.094,VALID,0,VALID,23.2848,VALID,158,VALID,0,
2014-07-17, 00:48:04,VALID,1008.97,VALID,0,INVALID,109.132,VALID,0,VALID,23.2654,VALID,158,VALID,0,
2014-07-17, 00:49:04,VALID,1009.01,VALID,0,INVALID,109.178,VALID,0.112112,VALID,23.2654,VALID,158,VALID,0,
2014-07-17, 00:50:04,VALID,1009,VALID,0,INVALID,109.231,VALID,0,VALID,23.2654,VALID,158,VALID,0,
2014-07-17, 00:51:04,VALID,1008.99,VALID,0,INVALID,109.239,VALID,0,VALID,23.2459,VALID,158,VALID,0,
2014-07-17, 00:52:04,VALID,1009,VALID,0,INVALID,109.239,VALID,0,VALID,23.2459,VALID,158,VALID,0,
2014-07-17, 00:53:04,VALID,1009.02,VALID,0,INVALID,109.292,VALID,0,VALID,23.2264,VALID,158,VALID,0,
2014-07-17, 00:54:04,VALID,1009.03,VALID,0,INVALID,109.315,VALID,0,VALID,23.2069,VALID,158,VALID,0,
2014-07-17, 00:55:04,VALID,1009.05,VALID,0,INVALID,109.369,VALID,0,VALID,23.2264,VALID,158,VALID,0,
2014-07-17, 00:56:04,VALID,1009.08,VALID,0,INVALID,109.399,VALID,0,VALID,23.2264,VALID,158,VALID,0,
2014-07-17, 00:57:04,VALID,1009.07,VALID,0,INVALID,109.437,VALID,0,VALID,23.2264,VALID,158,VALID,0,
2014-07-17, 00:58:04,VALID,1009.07,VALID,0,INVALID,109.452,VALID,0,VALID,23.2246,VALID,158,VALID,0,
2014-07-17, 00:59:04,VALID,1009.06,VALID,0,INVALID,109.559,VALID,0,VALID,23.2459,VALID,158,VALID,0,
2014-07-17, 01:00:04,VALID,1009.03,VALID,0,INVALID,109.605,VALID,0,VALID,23.2051,VALID,158,VALID,0,
2014-07-17, 01:01:04,VALID,1009.01,VALID,0,INVALID,109.613,VALID,0,VALID,23.1679,VALID,158,VALID,0,
2014-07-17, 01:02:04,VALID,1009.02,VALID,0,INVALID,109.635,VALID,0,VALID,23.1679,VALID,158,VALID,0,
2014-07-17, 01:03:04,VALID,1009,VALID,0,INVALID,109.635,VALID,0,VALID,23.1485,VALID,158,VALID,0,
2014-07-17, 01:04:04,VALID,1008.96,VALID,0,INVALID,109.635,VALID,0,VALID,23.129,VALID,158,VALID,0,
2014-07-17, 01:05:04,VALID,1008.93,VALID,0,INVALID,109.605,VALID,0,VALID,23.1307,VALID,158,VALID,0,
2014-07-17, 01:06:04,VALID,1008.93,VALID,0,INVALID,109.635,VALID,0,VALID,23.0688,VALID,158,VALID,0,
2014-07-17, 01:07:04,VALID,1008.9,VALID,0,INVALID,109.643,VALID,0,VALID,23.0705,VALID,158,VALID,0,
2014-07-17, 01:08:04,VALID,1008.9,VALID,0,INVALID,109.635,VALID,0,VALID,23.0705,VALID,158,VALID,0,
2014-07-17, 01:09:04,VALID,1008.89,VALID,0,INVALID,109.674,VALID,0,VALID,23.0705,VALID,158,VALID,0,
2014-07-17, 01:10:04,VALID,1008.88,VALID,0,INVALID,109.681,VALID,0,VALID,23.0705,VALID,158,VALID,0,
2014-07-17, 01:11:04,VALID,1008.87,VALID,0,INVALID,109.712,VALID,0,VALID,23.0688,VALID,158,VALID,0,
2014-07-17, 01:12:04,VALID,1008.87,VALID,0,INVALID,109.727,VALID,0,VALID,23.1095,VALID,158,VALID,0,
2014-07-17, 01:13:04,VALID,1008.85,VALID,0,INVALID,109.765,VALID,0,VALID,23.09,VALID,158,VALID,0,
2014-07-17, 01:14:04,VALID,1008.85,VALID,0,INVALID,109.773,VALID,0,VALID,23.1095,VALID,158,VALID,0,
2014-07-17, 01:15:04,VALID,1008.82,VALID,0,INVALID,109.796,VALID,0,VALID,23.1095,VALID,158,VALID,0,
2014-07-17, 01:16:04,VALID,1008.84,VALID,0,INVALID,109.773,VALID,0,VALID,23.09,VALID,158,VALID,0,
2014-07-17, 01:17:04,VALID,1008.82,VALID,0,INVALID,109.803,VALID,0,VALID,23.0705,VALID,158,VALID,0,
2014-07-17, 01:18:04,VALID,1008.78,VALID,0,INVALID,109.818,VALID,0,VALID,23.0705,VALID,158,VALID,0,
2014-07-17, 01:19:04,VALID,1008.77,VALID,0,INVALID,109.864,VALID,0,VALID,23.0121,VALID,158,VALID,0.0875,
2014-07-17, 01:20:04,VALID,1008.76,VALID,0,INVALID,109.849,VALID,0,VALID,23.0121,VALID,158,VALID,0.210938,
2014-07-17, 01:21:04,VALID,1008.7,VALID,0,INVALID,109.841,VALID,0,VALID,22.9926,VALID,158,VALID,0.125,
2014-07-17, 01:22:04,VALID,1008.69,VALID,0,INVALID,109.849,VALID,0,VALID,22.9926,VALID,158,VALID,0,
2014-07-17, 01:23:04,VALID,1008.67,VALID,0,INVALID,109.857,VALID,0,VALID,22.9926,VALID,158,VALID,0,
2014-07-17, 01:24:04,VALID,1008.67,VALID,0,INVALID,109.887,VALID,0,VALID,22.9731,VALID,158,VALID,0,
2014-07-17, 01:25:04,VALID,1008.68,VALID,0,INVALID,109.895,VALID,0.112112,VALID,22.9731,VALID,158,VALID,0,
2014-07-17, 01:26:04,VALID,1008.65,VALID,0,INVALID,109.925,VALID,0,VALID,22.9731,VALID,158,VALID,0,
2014-07-17, 01:27:04,VALID,1008.66,VALID,0,INVALID,109.918,VALID,0,VALID,22.9926,VALID,158,VALID,0,
2014-07-17, 01:28:04,VALID,1008.62,VALID,0,INVALID,109.925,VALID,0,VALID,22.9714,VALID,158,VALID,0,
2014-07-17, 01:29:04,VALID,1008.63,VALID,0,INVALID,109.963,VALID,0,VALID,22.9926,VALID,158,VALID,0,
2014-07-17, 01:30:04,VALID,1008.61,VALID,0,INVALID,109.971,VALID,0,VALID,22.9926,VALID,158,VALID,0,
2014-07-17, 01:31:04,VALID,1008.61,VALID,0,INVALID,110.001,VALID,0.112112,VALID,22.9714,VALID,158,VALID,0,
2014-07-17, 01:32:04,VALID,1008.61,VALID,0,INVALID,109.971,VALID,0.112112,VALID,23.0121,VALID,158,VALID,0,
2014-07-17, 01:33:04,VALID,1008.64,VALID,0,INVALID,109.971,VALID,0,VALID,22.9926,VALID,158,VALID,0,
2014-07-17, 01:34:04,VALID,1008.63,VALID,0,INVALID,110.024,VALID,0,VALID,22.9926,VALID,158,VALID,0,
2014-07-17, 01:35:04,VALID,1008.64,VALID,0,INVALID,110.032,VALID,0,VALID,22.9519,VALID,158,VALID,0,
2014-07-17, 01:36:04,VALID,1008.62,VALID,0,INVALID,110.032,VALID,0,VALID,22.9731,VALID,158,VALID,0,
2014-07-17, 01:37:04,VALID,1008.6,VALID,0,INVALID,110.032,VALID,0.112112,VALID,22.9519,VALID,158,VALID,0,
2014-07-17, 01:38:04,VALID,1008.58,VALID,0,INVALID,110.063,VALID,0,VALID,22.9731,VALID,158,VALID,0,
2014-07-17, 01:39:04,VALID,1008.57,VALID,0,INVALID,110.047,VALID,0,VALID,22.9536,VALID,158,VALID,0,
2014-07-17, 01:40:04,VALID,1008.59,VALID,0,INVALID,110.093,VALID,0.112112,VALID,22.9129,VALID,158,VALID,0,
2014-07-17, 01:41:04,VALID,1008.59,VALID,0,INVALID,110.131,VALID,0.112112,VALID,22.9147,VALID,158,VALID,0,
2014-07-17, 01:42:04,VALID,1008.62,VALID,0,INVALID,110.124,VALID,0,VALID,22.8952,VALID,158,VALID,0,
2014-07-17, 01:43:04,VALID,1008.61,VALID,0,INVALID,110.131,VALID,0,VALID,22.8545,VALID,158,VALID,0,
2014-07-17, 01:44:04,VALID,1008.61,VALID,0,INVALID,110.116,VALID,0,VALID,22.8757,VALID,158,VALID,0,
2014-07-17, 01:45:04,VALID,1008.61,VALID,0,INVALID,110.124,VALID,0,VALID,22.8545,VALID,158,VALID,0,
2014-07-17, 01:46:04,VALID,1008.59,VALID,0,INVALID,110.116,VALID,0,VALID,22.8545,VALID,158,VALID,0,
2014-07-17, 01:47:04,VALID,1008.62,VALID,0,INVALID,110.139,VALID,0.112112,VALID,22.8562,VALID,158,VALID,0,
2014-07-17, 01:48:04,VALID,1008.6,VALID,0,INVALID,110.146,VALID,0,VALID,22.835,VALID,158,VALID,0,
2014-07-17, 01:49:04,VALID,1008.61,VALID,0,INVALID,110.146,VALID,0.112112,VALID,22.8155,VALID,158,VALID,0.127734,
2014-07-17, 01:50:04,VALID,1008.58,VALID,0,INVALID,110.154,VALID,0,VALID,22.8173,VALID,158,VALID,0.204297,
2014-07-17, 01:51:04,VALID,1008.61,VALID,0,INVALID,110.146,VALID,0,VALID,22.8173,VALID,158,VALID,0.0636719,
2014-07-17, 01:52:04,VALID,1008.66,VALID,0,INVALID,110.146,VALID,0,VALID,22.8173,VALID,158,VALID,0.00117188,
2014-07-17, 01:53:04,VALID,1008.67,VALID,0,INVALID,110.154,VALID,0,VALID,22.8173,VALID,158,VALID,0,
2014-07-17, 01:54:04,VALID,1008.73,VALID,0,INVALID,110.169,VALID,0,VALID,22.7978,VALID,158,VALID,0,
2014-07-17, 01:55:04,VALID,1008.74,VALID,0,INVALID,110.185,VALID,0.112112,VALID,22.7978,VALID,158,VALID,0,
2014-07-17, 01:56:04,VALID,1008.73,VALID,0,INVALID,110.185,VALID,0.112112,VALID,22.7978,VALID,158,VALID,0.0894531,
2014-07-17, 01:57:04,VALID,1008.75,VALID,0,INVALID,110.177,VALID,0.112112,VALID,22.7978,VALID,158,VALID,0.188672,
2014-07-17, 01:58:04,VALID,1008.77,VALID,0,INVALID,110.169,VALID,0.112112,VALID,22.7766,VALID,158,VALID,0.0472656,
2014-07-17, 01:59:04,VALID,1008.77,VALID,0,INVALID,110.169,VALID,0.112112,VALID,22.7978,VALID,158,VALID,0.156641,
2014-07-17, 02:00:04,VALID,1008.78,VALID,0,INVALID,110.177,VALID,0.112112,VALID,22.7766,VALID,158,VALID,0.267578,
2014-07-17, 02:01:04,VALID,1008.77,VALID,0,INVALID,110.169,VALID,0,VALID,22.7978,VALID,158,VALID,0,
2014-07-17, 02:02:04,VALID,1008.78,VALID,0,INVALID,110.2,VALID,0,VALID,22.7978,VALID,158,VALID,0,
2014-07-17, 02:03:04,VALID,1008.76,VALID,0,INVALID,110.192,VALID,0,VALID,22.7978,VALID,158,VALID,0.0328125,
2014-07-17, 02:04:04,VALID,1008.75,VALID,0,INVALID,110.192,VALID,0.112112,VALID,22.8173,VALID,158,VALID,0.295312,
2014-07-17, 02:05:04,VALID,1008.72,VALID,0,INVALID,110.215,VALID,0.112112,VALID,22.7766,VALID,158,VALID,0.110937,
2014-07-17, 02:06:04,VALID,1008.72,VALID,0,INVALID,110.2,VALID,0.112112,VALID,22.7978,VALID,158,VALID,0,
2014-07-17, 02:07:04,VALID,1008.71,VALID,0,INVALID,110.207,VALID,0,VALID,22.8173,VALID,158,VALID,0.152344,
2014-07-17, 02:08:04,VALID,1008.74,VALID,0,INVALID,110.192,VALID,0,VALID,22.8173,VALID,158,VALID,0.0410156,
2014-07-17, 02:09:04,VALID,1008.77,VALID,0,INVALID,110.238,VALID,0,VALID,22.7978,VALID,158,VALID,0,
2014-07-17, 02:10:04,VALID,1008.75,VALID,0,INVALID,110.223,VALID,0,VALID,22.78,VALID,158,VALID,0,
2014-07-17, 02:11:04,VALID,1008.77,VALID,0,INVALID,110.238,VALID,0,VALID,22.7995,VALID,158,VALID,0.311719,
2014-07-17, 02:12:04,VALID,1008.79,VALID,0,INVALID,110.207,VALID,0,VALID,22.7995,VALID,158,VALID,0.155078,
2014-07-17, 02:13:04,VALID,1008.78,VALID,0,INVALID,110.23,VALID,0,VALID,22.8173,VALID,158,VALID,0.00195313,
2014-07-17, 02:14:04,VALID,1008.79,VALID,0,INVALID,110.23,VALID,0,VALID,22.858,VALID,158,VALID,0,
2014-07-17, 02:15:04,VALID,1008.79,VALID,0,INVALID,110.23,VALID,0,VALID,22.858,VALID,158,VALID,0,
2014-07-17, 02:16:04,VALID,1008.78,VALID,0,INVALID,110.268,VALID,0,VALID,22.8385,VALID,158,VALID,0.0464844,
2014-07-17, 02:17:04,VALID,1008.75,VALID,0,INVALID,110.307,VALID,0,VALID,22.7783,VALID,158,VALID,0.221094,
2014-07-17, 02:18:04,VALID,1008.74,VALID,0,INVALID,110.307,VALID,0,VALID,22.8013,VALID,158,VALID,0.226953,
2014-07-17, 02:19:04,VALID,1008.72,VALID,0,INVALID,110.337,VALID,0,VALID,22.7606,VALID,158,VALID,0.186328,
2014-07-17, 02:20:04,VALID,1008.75,VALID,0,INVALID,110.329,VALID,0,VALID,22.7394,VALID,158,VALID,0,
2014-07-17, 02:21:04,VALID,1008.71,VALID,0,INVALID,110.314,VALID,0,VALID,22.7411,VALID,158,VALID,0,
2014-07-17, 02:22:04,VALID,1008.72,VALID,0,INVALID,110.314,VALID,0,VALID,22.7411,VALID,158,VALID,0,
2014-07-17, 02:23:04,VALID,1008.69,VALID,0,INVALID,110.291,VALID,0,VALID,22.7199,VALID,158,VALID,0.155078,
2014-07-17, 02:24:04,VALID,1008.69,VALID,0,INVALID,110.291,VALID,0,VALID,22.7606,VALID,158,VALID,0.317578,
2014-07-17, 02:25:04,VALID,1008.68,VALID,0,INVALID,110.284,VALID,0,VALID,22.7783,VALID,158,VALID,0.335156,
2014-07-17, 02:26:04,VALID,1008.66,VALID,0,INVALID,110.299,VALID,0,VALID,22.7588,VALID,158,VALID,0.325,
2014-07-17, 02:27:04,VALID,1008.62,VALID,0,INVALID,110.307,VALID,0,VALID,22.7394,VALID,158,VALID,0.266406,
2014-07-17, 02:28:04,VALID,1008.59,VALID,0,INVALID,110.329,VALID,0,VALID,22.7394,VALID,158,VALID,0.0640625,
2014-07-17, 02:29:04,VALID,1008.58,VALID,0,INVALID,110.337,VALID,0.112112,VALID,22.7199,VALID,158,VALID,0,
2014-07-17, 02:30:04,VALID,1008.56,VALID,0,INVALID,110.337,VALID,0,VALID,22.7004,VALID,158,VALID,0,
2014-07-17, 02:31:04,VALID,1008.57,VALID,0,INVALID,110.36,VALID,0,VALID,22.6809,VALID,158,VALID,0,
2014-07-17, 02:32:04,VALID,1008.56,VALID,0,INVALID,110.368,VALID,0,VALID,22.6809,VALID,158,VALID,0,
2014-07-17, 02:33:04,VALID,1008.53,VALID,0,INVALID,110.329,VALID,0,VALID,22.6614,VALID,158,VALID,0,
2014-07-17, 02:34:04,VALID,1008.53,VALID,0,INVALID,110.36,VALID,0,VALID,22.642,VALID,158,VALID,0,
2014-07-17, 02:35:04,VALID,1008.54,VALID,0,INVALID,110.36,VALID,0,VALID,22.6225,VALID,158,VALID,0,
2014-07-17, 02:36:04,VALID,1008.52,VALID,0,INVALID,110.375,VALID,0,VALID,22.6225,VALID,158,VALID,0,
2014-07-17, 02:37:04,VALID,1008.52,VALID,0,INVALID,110.375,VALID,0,VALID,22.6225,VALID,158,VALID,0.0253906,
2014-07-17, 02:38:04,VALID,1008.47,VALID,0,INVALID,110.352,VALID,0,VALID,22.603,VALID,158,VALID,0.341406,
2014-07-17, 02:39:04,VALID,1008.47,VALID,0,INVALID,110.352,VALID,0,VALID,22.603,VALID,158,VALID,0.3,
2014-07-17, 02:40:04,VALID,1008.47,VALID,0,INVALID,110.345,VALID,0,VALID,22.6225,VALID,158,VALID,0.335938,
2014-07-17, 02:41:04,VALID,1008.43,VALID,0,INVALID,110.368,VALID,0.112112,VALID,22.603,VALID,158,VALID,0.134375,
2014-07-17, 02:42:04,VALID,1008.42,VALID,0,INVALID,110.368,VALID,0,VALID,22.603,VALID,158,VALID,0.109766,
2014-07-17, 02:43:04,VALID,1008.39,VALID,0,INVALID,110.36,VALID,0,VALID,22.603,VALID,158,VALID,0,
2014-07-17, 02:44:04,VALID,1008.39,VALID,0,INVALID,110.375,VALID,0.112112,VALID,22.564,VALID,158,VALID,0,
2014-07-17, 02:45:04,VALID,1008.4,VALID,0,INVALID,110.39,VALID,0,VALID,22.564,VALID,158,VALID,0,
2014-07-17, 02:46:04,VALID,1008.4,VALID,0,INVALID,110.383,VALID,0,VALID,22.5446,VALID,158,VALID,0,
2014-07-17, 02:47:04,VALID,1008.39,VALID,0,INVALID,110.39,VALID,0,VALID,22.564,VALID,158,VALID,0,
2014-07-17, 02:48:04,VALID,1008.38,VALID,0,INVALID,110.375,VALID,0.112112,VALID,22.5429,VALID,158,VALID,0,
2014-07-17, 02:49:04,VALID,1008.36,VALID,0,INVALID,110.398,VALID,0.112112,VALID,22.564,VALID,158,VALID,0,
2014-07-17, 02:50:04,VALID,1008.34,VALID,0,INVALID,110.406,VALID,0.112112,VALID,22.5446,VALID,158,VALID,0.133594,
2014-07-17, 02:51:04,VALID,1008.33,VALID,0,INVALID,110.39,VALID,0.112112,VALID,22.5446,VALID,158,VALID,0.272266,
2014-07-17, 02:52:04,VALID,1008.31,VALID,0,INVALID,110.429,VALID,0.112112,VALID,22.5251,VALID,158,VALID,0.00898437,
2014-07-17, 02:53:04,VALID,1008.26,VALID,0,INVALID,110.406,VALID,0.112112,VALID,22.4844,VALID,158,VALID,0.0738281,
2014-07-17, 02:54:04,VALID,1008.26,VALID,0,INVALID,110.406,VALID,0,VALID,22.5056,VALID,158,VALID,0.142969,
2014-07-17, 02:55:04,VALID,1008.26,VALID,0,INVALID,110.406,VALID,0.112112,VALID,22.5056,VALID,158,VALID,0,
2014-07-17, 02:56:04,VALID,1008.23,VALID,0,INVALID,110.406,VALID,0,VALID,22.5056,VALID,158,VALID,0,
2014-07-17, 02:57:04,VALID,1008.26,VALID,0,INVALID,110.406,VALID,0,VALID,22.5056,VALID,158,VALID,0,
2014-07-17, 02:58:04,VALID,1008.24,VALID,0,INVALID,110.398,VALID,0.112112,VALID,22.5039,VALID,158,VALID,0,
2014-07-17, 02:59:04,VALID,1008.25,VALID,0,INVALID,110.375,VALID,0.112112,VALID,22.5234,VALID,158,VALID,0,
2014-07-17, 03:00:04,VALID,1008.25,VALID,0,INVALID,110.352,VALID,0,VALID,22.564,VALID,158,VALID,0,
2014-07-17, 03:01:04,VALID,1008.28,VALID,0,INVALID,110.329,VALID,0.112112,VALID,22.603,VALID,158,VALID,0,
2014-07-17, 03:02:04,VALID,1008.27,VALID,0,INVALID,110.36,VALID,0,VALID,22.603,VALID,158,VALID,0,
2014-07-17, 03:03:04,VALID,1008.27,VALID,0,INVALID,110.337,VALID,0.112112,VALID,22.6225,VALID,158,VALID,0,
2014-07-17, 03:04:04,VALID,1008.28,VALID,0,INVALID,110.329,VALID,0.112112,VALID,22.603,VALID,158,VALID,0.177344,
2014-07-17, 03:05:04,VALID,1008.27,VALID,0,INVALID,110.383,VALID,0.112112,VALID,22.5818,VALID,158,VALID,0.248437,
2014-07-17, 03:06:04,VALID,1008.27,VALID,0,INVALID,110.421,VALID,0.112112,VALID,22.564,VALID,158,VALID,0,
2014-07-17, 03:07:04,VALID,1008.27,VALID,0,INVALID,110.429,VALID,0.112112,VALID,22.5429,VALID,158,VALID,0,
2014-07-17, 03:08:04,VALID,1008.24,VALID,0,INVALID,110.421,VALID,0.112112,VALID,22.5446,VALID,158,VALID,0.238281,
2014-07-17, 03:09:04,VALID,1008.27,VALID,0,INVALID,110.421,VALID,0.112112,VALID,22.5446,VALID,158,VALID,0.046875,
2014-07-17, 03:10:04,VALID,1008.28,VALID,0,INVALID,110.421,VALID,0.112112,VALID,22.5039,VALID,158,VALID,0.174219,
2014-07-17, 03:11:04,VALID,1008.31,VALID,0,INVALID,110.39,VALID,0,VALID,22.5446,VALID,158,VALID,0.240234,
2014-07-17, 03:12:04,VALID,1008.34,VALID,0,INVALID,110.398,VALID,0.112112,VALID,22.564,VALID,158,VALID,0.220703,
2014-07-17, 03:13:04,VALID,1008.37,VALID,0,INVALID,110.345,VALID,0.112112,VALID,22.5835,VALID,158,VALID,0.475,
2014-07-17, 03:14:04,VALID,1008.37,VALID,0,INVALID,110.352,VALID,0.112112,VALID,22.5818,VALID,158,VALID,0.426172,
2014-07-17, 03:15:04,VALID,1008.4,VALID,0,INVALID,110.368,VALID,0,VALID,22.6013,VALID,158,VALID,0.3625,
2014-07-17, 03:16:04,VALID,1008.41,VALID,0,INVALID,110.36,VALID,0.112112,VALID,22.603,VALID,158,VALID,0.327344,
2014-07-17, 03:17:04,VALID,1008.39,VALID,0,INVALID,110.36,VALID,0.112112,VALID,22.603,VALID,158,VALID,0.0898438,
2014-07-17, 03:18:04,VALID,1008.41,VALID,0,INVALID,110.375,VALID,0.112112,VALID,22.5623,VALID,158,VALID,0,
2014-07-17, 03:19:04,VALID,1008.38,VALID,0,INVALID,110.429,VALID,0.112112,VALID,22.5234,VALID,158,VALID,0.00507812,
2014-07-17, 03:20:04,VALID,1008.38,VALID,0,INVALID,110.436,VALID,0,VALID,22.5234,VALID,158,VALID,0.2875,
2014-07-17, 03:21:04,VALID,1008.36,VALID,0,INVALID,110.429,VALID,0.112112,VALID,22.5446,VALID,158,VALID,0.273047,
2014-07-17, 03:22:04,VALID,1008.33,VALID,0,INVALID,110.429,VALID,0.112112,VALID,22.5039,VALID,158,VALID,0.171875,
2014-07-17, 03:23:04,VALID,1008.36,VALID,0,INVALID,110.436,VALID,0.112112,VALID,22.5251,VALID,158,VALID,0.106641,
2014-07-17, 03:24:04,VALID,1008.36,VALID,0,INVALID,110.429,VALID,0.112112,VALID,22.5056,VALID,158,VALID,0,
2014-07-17, 03:25:04,VALID,1008.36,VALID,0,INVALID,110.451,VALID,0.112112,VALID,22.5056,VALID,158,VALID,0,
2014-07-17, 03:26:04,VALID,1008.33,VALID,0,INVALID,110.444,VALID,0,VALID,22.5056,VALID,158,VALID,0,
2014-07-17, 03:27:04,VALID,1008.35,VALID,0,INVALID,110.436,VALID,0.112112,VALID,22.4844,VALID,158,VALID,0.146484,
2014-07-17, 03:28:04,VALID,1008.32,VALID,0,INVALID,110.436,VALID,0.112112,VALID,22.4861,VALID,158,VALID,0.215625,
2014-07-17, 03:29:04,VALID,1008.37,VALID,0,INVALID,110.474,VALID,0,VALID,22.4667,VALID,158,VALID,0.334766,
2014-07-17, 03:30:04,VALID,1008.36,VALID,0,INVALID,110.459,VALID,0.112112,VALID,22.4472,VALID,158,VALID,0.238672,
2014-07-17, 03:31:04,VALID,1008.39,VALID,0,INVALID,110.459,VALID,0,VALID,22.4065,VALID,158,VALID,0.144141,
2014-07-17, 03:32:04,VALID,1008.42,VALID,0,INVALID,110.444,VALID,0,VALID,22.4277,VALID,158,VALID,0.00976563,
2014-07-17, 03:33:04,VALID,1008.43,VALID,0,INVALID,110.436,VALID,0.112112,VALID,22.4277,VALID,158,VALID,0,
2014-07-17, 03:34:04,VALID,1008.42,VALID,0,INVALID,110.451,VALID,0.112112,VALID,22.4277,VALID,158,VALID,0,
2014-07-17, 03:35:04,VALID,1008.42,VALID,0,INVALID,110.451,VALID,0.112112,VALID,22.4065,VALID,158,VALID,0,
2014-07-17, 03:36:04,VALID,1008.45,VALID,0,INVALID,110.459,VALID,0,VALID,22.4082,VALID,158,VALID,0,
2014-07-17, 03:37:04,VALID,1008.47,VALID,0,INVALID,110.436,VALID,0,VALID,22.387,VALID,158,VALID,0,
2014-07-17, 03:38:04,VALID,1008.45,VALID,0,INVALID,110.451,VALID,0.112112,VALID,22.4082,VALID,158,VALID,0,
2014-07-17, 03:39:04,VALID,1008.48,VALID,0,INVALID,110.467,VALID,0.112112,VALID,22.387,VALID,158,VALID,0,
2014-07-17, 03:40:04,VALID,1008.49,VALID,0,INVALID,110.451,VALID,0,VALID,22.3904,VALID,158,VALID,0,
2014-07-17, 03:41:04,VALID,1008.52,VALID,0,INVALID,110.459,VALID,0,VALID,22.3693,VALID,158,VALID,0,
2014-07-17, 03:42:04,VALID,1008.53,VALID,0,INVALID,110.474,VALID,0,VALID,22.3515,VALID,158,VALID,0,
2014-07-17, 03:43:04,VALID,1008.52,VALID,0,INVALID,110.49,VALID,0,VALID,22.3515,VALID,158,VALID,0,
2014-07-17, 03:44:04,VALID,1008.52,VALID,0,INVALID,110.52,VALID,0,VALID,22.3515,VALID,158,VALID,0,
2014-07-17, 03:45:04,VALID,1008.54,VALID,0,INVALID,110.505,VALID,0,VALID,22.3125,VALID,158,VALID,0.154687,
2014-07-17, 03:46:04,VALID,1008.53,VALID,0,INVALID,110.467,VALID,0,VALID,22.3108,VALID,158,VALID,0.264453,
2014-07-17, 03:47:04,VALID,1008.56,VALID,0,INVALID,110.474,VALID,0,VALID,22.2914,VALID,158,VALID,0,
2014-07-17, 03:48:04,VALID,1008.58,VALID,0,INVALID,110.474,VALID,0,VALID,22.3125,VALID,158,VALID,0,
2014-07-17, 03:49:04,VALID,1008.61,VALID,0,INVALID,110.451,VALID,0,VALID,22.3125,VALID,158,VALID,0.275781,